Simultaneous Nadir Overpasses (SNOs) Predictions

Prediction of SNOs between AQUA and NPP Satellite Orbit:

Table of predicted SNOs for the next 14.0 days since TLE Epoch: 8/2/2019
Index Date (AQUA) Time (AQUA) Lat,Lon (AQUA) SZA (AQUA ) Date (NPP) Time (NPP) Lat,Lon (NPP) SZA (NPP ) Distance(km) Time Diff (sec)
1 08/05/2019 05:32:27 74.82, -27.32 82.20 08/05/2019 05:31:36 74.83, -27.29 82.24 1.04 51
2 08/05/2019 06:21:29 -76.09, 143.88 99.25 08/05/2019 06:21:55 -76.09, 143.94 99.29 1.75 26
3 08/07/2019 21:48:51 75.01, 89.03 82.70 08/07/2019 21:48:27 75.00, 88.97 82.74 1.92 24
4 08/07/2019 22:37:53 -76.26, -99.68 98.75 08/07/2019 22:38:46 -76.26, -99.70 98.79 0.47 53
5 08/10/2019 13:16:27 -73.31, 33.32 94.69 08/10/2019 13:15:13 -73.33, 33.20 94.61 5.00 74
6 08/10/2019 14:05:06 75.69,-153.21 82.66 08/10/2019 14:05:08 75.69,-153.17 82.64 1.32 2
7 08/10/2019 14:50:15 -81.02, 96.10 112.05 08/10/2019 14:51:28 -80.36, 94.29 112.35 80.76 73
8 08/13/2019 05:32:25 -74.87, 152.81 95.67 08/13/2019 05:31:37 -74.88, 152.85 95.65 1.38 48
9 08/13/2019 06:21:31 75.86, -36.82 83.21 08/13/2019 06:22:00 75.86, -36.85 83.20 0.97 29
10 08/15/2019 21:48:48 -75.15, -90.60 95.20 08/15/2019 21:48:27 -75.15, -90.61 95.18 0.37 21




NCC Satellite Simultaneous Nadir Overpasses (SNOs) Prediction Service
